RADUGA-1 6 [-]

Last updated on Tue Jun 27 2023 00:03:02 GMT+0000 (Coordinated Universal Time)

1 26936U 01045A 23177.42292247 -.00000114 00000+0 00000+0 0 9993 2 26936 13.6023 22.2688 0016882 167.9211 181.2028 0.97744934 77950
UTC large
Height (km)
Speed (km/s)
/
Latitude / Longitude
Inclination (degrees)
Orbital Period (minutes)
Azimuth
Elevation
Range (km)
Doppler Factor

Next 0 passes for location: London (51.5072 / 0.1276)

Sorry there are no passes over London.
RADUGA-1 6 [-]